Location: Caltech
(34.1382°N, 118.1253°W)
Time: 13:18:50
(UTC-07:00)

CZ-2C R/B - Visible Passes

Search period start: 01 October 2014 00:00
Search period end: 11 October 2014 00:00
Orbit: 670 x 786 km, 98.1° (Epoch: 30 September)

Date Brightness Start Highest point End Pass type
(mag) Time Alt. Az. Time Alt. Az. Time Alt. Az.
01 Oct 2.8 19:30:33 10° SE 19:35:30 47° ENE 19:40:28 10° N visible
01 Oct 5.1 21:10:37 10° SW 21:13:56 17° W 21:17:15 10° NW visible
02 Oct 3.3 20:21:08 10° S 20:26:10 52° W 20:31:13 10° NNW visible
03 Oct 2.7 19:33:42 10° SSE 19:38:42 51° ENE 19:43:42 10° N visible
03 Oct 5.2 21:14:08 10° SW 21:17:10 16° W 21:20:13 10° WNW visible
04 Oct 3.4 20:24:24 10° S 20:29:23 48° W 20:34:22 10° NNW visible
05 Oct 2.6 19:36:51 10° SSE 19:41:55 56° ENE 19:46:56 10° N visible
05 Oct 5.3 21:17:42 10° SW 21:20:25 14° W 21:23:08 10° WNW visible
06 Oct 3.9 18:51:09 10° ESE 18:54:44 19° ENE 18:58:17 10° NNE visible
06 Oct 3.6 20:27:41 10° S 20:32:37 44° W 20:37:31 10° NNW visible
07 Oct 2.5 19:40:01 10° SSE 19:45:07 61° ENE 19:50:10 10° N visible
07 Oct 5.4 21:21:19 10° WSW 21:23:39 13° W 21:25:59 10° WNW visible
08 Oct 3.8 18:54:09 10° ESE 18:57:54 21° ENE 19:01:37 10° NNE visible
08 Oct 3.7 20:30:59 10° SSW 20:35:50 40° W 20:40:39 10° NNW visible
09 Oct 2.4 19:43:12 10° SSE 19:48:19 66° ENE 19:53:22 10° N visible
09 Oct 5.4 21:25:04 10° WSW 21:26:53 12° W 21:28:43 10° WNW visible
10 Oct 3.7 18:57:11 10° ESE 19:01:04 22° ENE 19:04:55 10° NNE visible
10 Oct 3.9 20:34:18 10° SSW 20:39:03 37° W 20:43:46 10° NNW visible
